Portada
METAR-TAF:

METAR-TAF

Aeropuertos :

Aeropuerto de Wasilla

Wasilla, Alaska, Estados Unidos

latitud: 61-34-19N, longitud: 149-32-26W, altitud: 106 m

Observación

El informe se hizo hace 19 minutos, a las 02:56 UTC
Viento calma
Temperatura -16°C
Humedad 84%
Presión 999 hPa
Visibilidad: 16.1 km
Cielo despejado

METAR: PAWS 090256Z AUTO 00000KT 10SM CLR M16/M18 A2949 RMK AO2 SLP996 60000 T11611178 53007 FZRANO

Hora: 18:15 (03:15 UTC)


TAF: falta

Observaciones y pronósticos meteorológicos de más de 4000 aeropuertos (mensajes METAR y TAF).

Los puntos amarillos y rojos representan las estaciones disponibles.

Ponga el ratón en el punto deseado para ver el nombre de la estación.

Haga clic para ver las observaciones y los pronósticos meteorológicos.

Para cambiar el mapa : haga clic en los botones verdes con una cruz de color negro para hacer un zoom, en el botón verde con un guión para alejar o en las flechas verdes para mapas adyacentes.


METAR-TAF: